Weather History for KCHA - April, 2014

Change the Weather History Date:

Friday, April 4, 2014

  Actual Average Record
Temperature  
Mean Temperature 62 °F 57 °F  
Max Temperature 68 °F 70 °F 88 °F (1934)
Min Temperature 55 °F 45 °F 29 °F (1975)
Degree Days  
Heating Degree Days 3 8  
Month to date heating degree days 3 35  
Since 1 July heating degree days 3232 3061  
Cooling Degree Days 0 1  
Month to date cooling degree days 7 4  
Year to date cooling degree days 7 11  
Growing Degree Days 14 (Base 50)    
Moisture  
Dew Point 57 °F    
Average Humidity 73    
Maximum Humidity 93    
Minimum Humidity 53    
Precipitation  
Precipitation 0.16 in 0.14 in 5.99 in (1911)
Month to date precipitation 0.16 0.57  
Year to date precipitation 10.13 15.30  
Snow  
Snow 0.00 in 0.00 in - ()
Month to date snowfall 0.0 0.0  
Since 1 July snowfall 8.4 3.8  
Snow Depth 0.00 in    
Sea Level Pressure  
Sea Level Pressure 29.87 in    
Wind  
Wind Speed 11 mph (SSW)    
Max Wind Speed 25 mph    
Max Gust Speed 31 mph    
Visibility 9 miles    
Events Rain , Thunderstorm    
T = Trace of Precipitation, MM = Missing Value Source: NWS Daily Summary

Daily Weather History Graph

Daily Weather History Graph

Search for Another Location

Airport or City:

Trip Planner

Search our weather history database for the weather conditions in past years. The results will help you decide how hot, cold, wet, or windy it might be!

Date:

Astronomy

Apr. 04, 2014 Rise Set
Actual Time 7:23 AM EDT 8:04 PM EDT
Civil Twilight 6:57 AM EDT 8:30 PM EDT
Nautical Twilight 6:27 AM EDT 9:00 PM EDT
Astronomical Twilight 5:56 AM EDT 9:31 PM EDT
Moon 10:47 AM EDT (4/4) 12:14 AM EDT (4/4)
Length of Visible Light 13h 32m
Length of Day
12h 41m
Waxing Crescent, 25% of the Moon is Illuminated
Apr 4
Waxing Crescent
Apr 7
First Quarter
Apr 15
Full
Apr 22
Last Quarter
Apr 29
New

Hourly Weather History & Observations

Time (EDT) Temp. Dew Point Humidity Pressure Visibility Wind Dir Wind Speed Gust Speed Precip Events Conditions
12:53 AM 64.9 °F 57.0 °F 75% 29.86 in 10.0 mi SW 3.5 mph - N/A   Clear
1:53 AM 64.0 °F 57.0 °F 78% 29.86 in 10.0 mi Calm Calm - N/A   Clear
2:53 AM 66.9 °F 55.9 °F 68% 29.85 in 10.0 mi South 5.8 mph - N/A   Clear
3:53 AM 66.9 °F 55.0 °F 66% 29.83 in 10.0 mi South 8.1 mph - N/A   Clear
4:53 AM 66.0 °F 55.9 °F 70% 29.83 in 10.0 mi South 6.9 mph - N/A   Partly Cloudy
5:10 AM 66.0 °F 55.9 °F 70% 29.86 in 10.0 mi South 6.9 mph - N/A   Mostly Cloudy
5:53 AM 66.9 °F 57.0 °F 70% 29.81 in 10.0 mi South 11.5 mph - N/A   Mostly Cloudy
6:53 AM 66.9 °F 57.9 °F 73% 29.81 in 10.0 mi South 8.1 mph - N/A   Mostly Cloudy
7:47 AM 66.2 °F 59.0 °F 78% 29.79 in 7.0 mi SSE 9.2 mph - N/A Thunderstorm Thunderstorm
7:53 AM 66.9 °F 59.0 °F 76% 29.76 in 3.0 mi South 12.7 mph 23.0 mph 0.00 in Rain , Thunderstorm Light Thunderstorms and Rain
8:06 AM 66.9 °F 60.1 °F 79% 29.83 in 1.0 mi SW 13.8 mph - 0.00 in Rain , Thunderstorm Thunderstorms and Rain
8:14 AM 64.9 °F 61.0 °F 87% 29.83 in 2.5 mi SSW 13.8 mph - 0.10 in Rain , Thunderstorm Light Thunderstorms and Rain
8:37 AM 64.9 °F 62.1 °F 90% 29.84 in 4.0 mi South 10.4 mph - 0.14 in Rain Light Rain
8:53 AM 64.9 °F 62.1 °F 90% 29.83 in 4.0 mi South 11.5 mph - 0.15 in Rain Light Rain
9:17 AM 66.9 °F 61.0 °F 81% 29.87 in 8.0 mi West 16.1 mph 29.9 mph 0.01 in Rain Light Rain
9:53 AM 66.9 °F 57.9 °F 73% 29.87 in 10.0 mi WSW 5.8 mph - 0.01 in   Mostly Cloudy
10:53 AM 66.0 °F 57.9 °F 75% 29.86 in 10.0 mi South 10.4 mph - 0.00 in   Mostly Cloudy
11:53 AM 64.9 °F 59.0 °F 81% 29.81 in 10.0 mi SSE 15.0 mph 23.0 mph 0.00 in   Mostly Cloudy
12:31 PM 64.9 °F 59.0 °F 81% 29.88 in 10.0 mi SSW 17.3 mph 21.9 mph N/A   Mostly Cloudy
12:53 PM 66.0 °F 59.0 °F 78% 29.87 in 10.0 mi SSW 13.8 mph - N/A   Mostly Cloudy
1:16 PM 68.0 °F 59.0 °F 73% 29.89 in 10.0 mi SW 13.8 mph - N/A   Mostly Cloudy
1:53 PM 68.0 °F 55.0 °F 63% 29.88 in 10.0 mi WSW 18.4 mph 31.1 mph N/A   Mostly Cloudy
2:15 PM 66.9 °F 55.0 °F 66% 29.90 in 10.0 mi SW 13.8 mph 28.8 mph N/A   Mostly Cloudy
2:53 PM 66.0 °F 55.0 °F 68% 29.89 in 10.0 mi SW 18.4 mph 28.8 mph N/A   Mostly Cloudy
3:05 PM 66.0 °F 55.0 °F 68% 29.90 in 10.0 mi SW 17.3 mph 27.6 mph N/A   Overcast
3:53 PM 64.9 °F 55.9 °F 73% 29.89 in 7.0 mi SSW 17.3 mph 21.9 mph 0.00 in   Overcast
4:53 PM 64.0 °F 59.0 °F 84% 29.90 in 8.0 mi SW 9.2 mph - 0.00 in   Overcast
5:06 PM 64.0 °F 59.0 °F 84% 29.91 in 10.0 mi SSW 9.2 mph - N/A   Overcast
5:53 PM 64.0 °F 59.0 °F 84% 29.90 in 10.0 mi SSW 12.7 mph - N/A   Mostly Cloudy
6:53 PM 66.0 °F 55.9 °F 70% 29.89 in 10.0 mi SW 13.8 mph - N/A   Scattered Clouds
7:53 PM 64.9 °F 55.0 °F 70% 29.90 in 10.0 mi SSW 10.4 mph - N/A   Scattered Clouds
8:53 PM 63.0 °F 55.0 °F 75% 29.91 in 10.0 mi SW 6.9 mph - N/A   Scattered Clouds
9:53 PM 61.0 °F 54.0 °F 78% 29.94 in 10.0 mi West 5.8 mph - N/A   Scattered Clouds
10:53 PM 61.0 °F 48.9 °F 64% 29.96 in 10.0 mi WNW 8.1 mph - N/A   Partly Cloudy
11:53 PM 59.0 °F 42.1 °F 53% 29.99 in 10.0 mi NNW 13.8 mph - N/A   Partly Cloudy